Flag for Taiwan Weather past 2 weeks in Taipei, Taiwan

Now
84 °F

Scattered clouds.


Feels Like: 91 °F
Forecast: 82 / 94 °F
Wind: 6 mph from West

Location: Sungshan / Taipei

Current Time: May 30, 2015 at 7:13:44 AM

Latest Report: May 30, 2015 at 6:30 AM


Visibility: N/A

Pressure: 29.71 "Hg

Humidity: 70%

Dew point: 73 °F

Location of TaipeiLocation

Historic Weather in Taipei — Graph

°F

Taipei temperature yesterday

Maximum temperature yesterday: 95 °F (at 2:30 PM)
Minimum temperature yesterday: 82 °F (at 5:00 AM)
Average temperature yesterday: 89 °F

Past Weeks' High & Low Weather Summary

 TemperatureHumidityPressure
High95 °F (May 18, 12:30 PM)100% (May 20, 8:00 PM)29.98 "Hg (May 20, 8:00 PM)
Low70 °F (May 21, 6:30 AM)34% (May 19, 11:00 AM)29.56 "Hg (May 28, 4:00 PM)
Average80 °F75%29.77 "Hg
* Reported May 15 6:00 AM — May 30 6:00 AM, Taipei, Weather by CustomWeather, © 2015

Note: Actual official high and low records may vary slightly from our data, if they occured in-between our weather recording intervals... More about our weather records

Advertising

Taipei weather history for previous 24 hours

 ConditionsComfort  
Time TempWeatherWind HumidityBarometerVisibility
6:00 AM
Sat, May 30
82 °FPassing clouds.5 mph74%29.71 "HgN/A
5:00 AM81 °FPassing clouds.2 mph74%29.68 "HgN/A
4:00 AM82 °FPassing clouds.3 mph74%29.68 "HgN/A
3:00 AM82 °FPassing clouds.3 mph74%29.68 "HgN/A
2:00 AM84 °FPassing clouds.5 mph74%29.71 "HgN/A
1:00 AM82 °FPassing clouds.5 mph74%29.71 "HgN/A
12:00 AM84 °FPassing clouds.5 mph74%29.74 "HgN/A
11:30 PM
Fri, May 29
84 °FPassing clouds.3 mph74%29.74 "HgN/A
11:00 PM84 °FPassing clouds.1 mph74%29.74 "HgN/A
10:30 PM86 °FPassing clouds.2 mph70%29.74 "HgN/A
10:00 PM86 °FPassing clouds.2 mph70%29.71 "HgN/A
9:30 PM84 °FPassing clouds.5 mph74%29.71 "HgN/A
9:00 PM84 °FPassing clouds.5 mph74%29.71 "HgN/A
8:30 PM84 °FPassing clouds.7 mph74%29.68 "HgN/A
8:00 PM88 °FPassing clouds.5 mph62%29.68 "HgN/A
7:30 PM90 °FPassing clouds.6 mph59%29.68 "HgN/A
7:00 PM90 °FPassing clouds.7 mph55%29.65 "HgN/A
6:30 PM90 °FScattered clouds.9 mph55%29.65 "HgN/A
6:00 PM91 °FPassing clouds.13 mph52%29.65 "HgN/A
5:30 PM93 °FPassing clouds.12 mph49%29.65 "HgN/A
5:00 PM93 °FPassing clouds.12 mph49%29.65 "HgN/A
4:30 PM95 °FPassing clouds.13 mph44%29.65 "HgN/A
4:00 PM95 °FScattered clouds.14 mph47%29.65 "HgN/A
3:30 PM95 °FPassing clouds.13 mph44%29.65 "HgN/A
3:00 PM95 °FScattered clouds.16 mph47%29.65 "HgN/A
2:45 PM95 °FPartly sunny.16 mph47%29.65 "HgN/A
2:30 PM95 °FPartly sunny.14 mph50%29.65 "HgN/A
2:00 PM93 °FPartly sunny.13 mph53%29.65 "HgN/A
1:30 PM93 °FBroken clouds.14 mph49%29.68 "HgN/A
1:00 PM93 °FBroken clouds.14 mph49%29.68 "HgN/A
12:30 PM93 °FPartly sunny.15 mph49%29.68 "HgN/A
12:00 PM93 °FPartly sunny.17 mph49%29.71 "HgN/A
11:30 AM93 °FPartly sunny.15 mph53%29.71 "HgN/A
11:00 AM91 °FPartly sunny.12 mph52%29.71 "HgN/A
10:30 AM93 °FPartly sunny.12 mph49%29.71 "HgN/A
10:00 AM91 °FScattered clouds.8 mph52%29.71 "HgN/A
9:30 AM91 °FPassing clouds.10 mph49%29.71 "HgN/A
9:00 AM90 °FPassing clouds.10 mph55%29.71 "HgN/A
8:30 AM88 °FScattered clouds.10 mph59%29.71 "HgN/A
8:00 AM84 °FScattered clouds.7 mph66%29.71 "HgN/A
7:30 AM84 °FScattered clouds.2 mph70%29.71 "HgN/A
Weather by CustomWeather, © 2015

See weather overviewHow to use our weather pages